sat.trackr.live / text

‹ back to catalog

STARLINK-11436 [DTC]

NORAD 62887 · 2025-024J

PAYLOAD ACTIVE UNKNOWN

§ Identity

Operator
Country
US
Launch date
2025-02-04
Launch site
AFETR
Launch vehicle
Mass (kg)
RCS (m²)

Purposes: comms

External: N2YO · Heavens-Above · Gunter

§ Orbital elements

Epoch: 2026-05-25T02:12:47.954016Z

Period
91.67 min
Inclination
43.0023°
Eccentricity
0.0001939
Mean motion
15.70866552 rev/d
Perigee alt
355.1 km
Apogee alt
357.7 km
Semi-major
6,734.6 km
B*
1.3208e-3
RAAN
80.8432°
Arg perigee
246.9725°
Mean anomaly
113.0938°
Rev number
7,548

§ Raw data

STARLINK-11436 [DTC]1 62887U 25024J   26145.09222169  .00172796  00000+0  13208-2 0  99902 62887  43.0023  80.8432 0001939 246.9725 113.0938 15.70866552 75481

JSON: /api/v1/satellites/62887 · /tle

For live sub-satellite position, see the globe view (requires WebGL).

§ Visibility from observer

Set your observer location to see the next 7 days of passes ≥ 10°. The values pass through the URL so the page stays shareable.

No JS? Fill the form by hand. The geolocation button needs JavaScript.